Weather History for KEGE - August, 2014

Change the Weather History Date:

Wednesday, August 20, 2014

  Actual Average Record
Temperature  
Mean Temperature 65 °F -  
Max Temperature 73 °F 81 °F 91 °F (1981)
Min Temperature 55 °F 45 °F 31 °F (1949)
Growing Degree Days 15 (Base 50)    
Moisture  
Dew Point 53 °F    
Average Humidity 77    
Maximum Humidity 100    
Minimum Humidity 38    
Precipitation  
Precipitation 0.04 in - - ()
Sea Level Pressure  
Sea Level Pressure 30.13 in    
Wind  
Wind Speed 3 mph (SSE)    
Max Wind Speed 14 mph    
Max Gust Speed 31 mph    
Visibility 10 miles    
Events      
Averages and records for this station are not official NWS values.
T = Trace of Precipitation, MM = Missing Value Source: NWS Daily Summary

Daily Weather History Graph

Daily Weather History Graph

Search for Another Location

Airport or City:

Trip Planner

Search our weather history database for the weather conditions in past years. The results will help you decide how hot, cold, wet, or windy it might be!

Date:

Astronomy

Aug. 20, 2014 Rise Set
Actual Time 6:24 AM MDT 7:56 PM MDT
Civil Twilight 5:56 AM MDT 8:24 PM MDT
Nautical Twilight 5:21 AM MDT 8:59 PM MDT
Astronomical Twilight 4:45 AM MDT 9:35 PM MDT
Moon 2:07 AM MDT (8/20) 4:43 PM MDT (8/20)
Length of Visible Light 14h 28m
Length of Day
13h 31m
Waning Crescent, 20% of the Moon is Illuminated
Aug 20
Waning Crescent
Aug 25
New
Sep 2
First Quarter
Sep 8
Full
Sep 15
Last Quarter

Hourly Weather History & Observations

Time (MDT) Temp. Dew Point Humidity Pressure Visibility Wind Dir Wind Speed Gust Speed Precip Events Conditions
12:15 AM 57.2 °F 55.4 °F 94% 30.11 in 10.0 mi ENE 3.5 mph - N/A   Overcast
12:35 AM 57.2 °F 55.4 °F 94% 30.11 in 10.0 mi Calm Calm - N/A   Overcast
12:55 AM 57.2 °F 55.4 °F 94% 30.10 in 10.0 mi Calm Calm - N/A   Overcast
1:15 AM 57.2 °F 55.4 °F 94% 30.10 in 10.0 mi SSW 3.5 mph - N/A   Overcast
1:35 AM 57.2 °F 55.4 °F 94% 30.09 in 10.0 mi West 4.6 mph - N/A   Overcast
1:55 AM 57.2 °F 57.2 °F 100% 30.09 in 10.0 mi WSW 5.8 mph - N/A   Overcast
2:15 AM 57.2 °F 55.4 °F 94% 30.10 in 10.0 mi West 4.6 mph - N/A   Overcast
2:35 AM 57.2 °F 55.4 °F 94% 30.09 in 10.0 mi Calm Calm - N/A   Overcast
2:55 AM 57.2 °F 57.2 °F 100% 30.09 in 10.0 mi Calm Calm - N/A   Overcast
3:15 AM 57.2 °F 57.2 °F 100% 30.10 in 10.0 mi Calm Calm - N/A   Overcast
3:35 AM 57.2 °F 55.4 °F 94% 30.10 in 10.0 mi Calm Calm - N/A   Overcast
3:55 AM 57.2 °F 55.4 °F 94% 30.10 in 10.0 mi Calm Calm - N/A   Overcast
4:15 AM 57.2 °F 55.4 °F 94% 30.10 in 10.0 mi ENE 4.6 mph - N/A   Overcast
4:35 AM 57.2 °F 55.4 °F 94% 30.10 in 10.0 mi East 4.6 mph - N/A   Overcast
4:55 AM 57.2 °F 55.4 °F 94% 30.10 in 10.0 mi ENE 3.5 mph - N/A   Overcast
5:15 AM 57.2 °F 57.2 °F 100% 30.10 in 10.0 mi Calm Calm - N/A   Overcast
5:35 AM 57.2 °F 55.4 °F 94% 30.10 in 10.0 mi Calm Calm - N/A   Overcast
5:55 AM 57.2 °F 55.4 °F 94% 30.11 in 10.0 mi Calm Calm - N/A   Overcast
6:15 AM 57.2 °F 55.4 °F 94% 30.11 in 10.0 mi WSW 3.5 mph - N/A   Overcast
6:35 AM 57.2 °F 55.4 °F 94% 30.12 in 10.0 mi Calm Calm - N/A   Overcast
6:55 AM 57.2 °F 57.2 °F 100% 30.13 in 10.0 mi Calm Calm - N/A   Overcast
7:50 AM 57.2 °F 57.2 °F 100% 30.14 in 10.0 mi Calm Calm - N/A   Mostly Cloudy
8:50 AM 60.8 °F 57.2 °F 88% 30.14 in 10.0 mi Calm Calm - N/A   Mostly Cloudy
9:55 AM 64.4 °F 55.4 °F 73% 30.16 in 10.0 mi Calm Calm - N/A   Mostly Cloudy
10:50 AM 66.2 °F 55.4 °F 68% 30.15 in 10.0 mi Calm Calm - N/A   Mostly Cloudy
11:50 AM 69.8 °F 51.8 °F 53% 30.14 in 10.0 mi Calm Calm - N/A   Mostly Cloudy
12:50 PM 71.6 °F 48.2 °F 43% 30.12 in 10.0 mi SSW 13.8 mph 18.4 mph N/A   Mostly Cloudy
1:50 PM 69.8 °F 46.4 °F 43% 30.14 in 10.0 mi SSW 11.5 mph - N/A   Mostly Cloudy
2:50 PM 73.4 °F 46.4 °F 38% 30.12 in 10.0 mi SSW 12.7 mph 18.4 mph N/A   Scattered Clouds
3:55 PM 73.4 °F 46.4 °F 38% 30.10 in 10.0 mi SSW 13.8 mph 18.4 mph N/A   Mostly Cloudy
4:50 PM 66.2 °F 48.2 °F 52% 30.14 in 10.0 mi SSW 10.4 mph 31.1 mph N/A   Mostly Cloudy
5:55 PM 71.6 °F 44.6 °F 38% 30.11 in 10.0 mi WNW 5.8 mph - N/A   Partly Cloudy
6:50 PM 71.6 °F 46.4 °F 41% 30.11 in 10.0 mi Variable 4.6 mph - N/A   Partly Cloudy
7:15 PM 71.6 °F 46.4 °F 41% 30.11 in 10.0 mi ENE 3.5 mph - N/A   Clear
7:35 PM 69.8 °F 46.4 °F 43% 30.11 in 10.0 mi East 3.5 mph - N/A   Clear
7:55 PM 68.0 °F 48.2 °F 49% 30.11 in 10.0 mi Calm Calm - N/A   Clear
8:15 PM 66.2 °F 48.2 °F 52% 30.12 in 10.0 mi Calm Calm - N/A   Clear
8:35 PM 64.4 °F 51.8 °F 64% 30.13 in 10.0 mi ENE 5.8 mph - N/A   Clear
8:55 PM 62.6 °F 50.0 °F 63% 30.13 in 10.0 mi ENE 9.2 mph - N/A   Clear
9:15 PM 62.6 °F 50.0 °F 63% 30.14 in 10.0 mi NE 5.8 mph - N/A   Clear
9:35 PM 60.8 °F 50.0 °F 68% 30.15 in 10.0 mi East 5.8 mph - N/A   Scattered Clouds
9:55 PM 60.8 °F 50.0 °F 68% 30.19 in 10.0 mi SSW 11.5 mph 26.5 mph N/A   Mostly Cloudy
10:15 PM 57.2 °F 51.8 °F 82% 30.20 in 10.0 mi West 5.8 mph - 0.03 in   Overcast
10:35 PM 57.2 °F 53.6 °F 88% 30.20 in 10.0 mi SSW 5.8 mph - 0.04 in   Overcast
10:55 PM 57.2 °F 53.6 °F 88% 30.20 in 10.0 mi NW 3.5 mph - 0.04 in   Mostly Cloudy
11:15 PM 57.2 °F 53.6 °F 88% 30.21 in 10.0 mi ESE 5.8 mph - N/A   Mostly Cloudy
11:35 PM 57.2 °F 53.6 °F 88% 30.21 in 10.0 mi ENE 4.6 mph - N/A   Mostly Cloudy
11:55 PM 55.4 °F 53.6 °F 94% 30.21 in 10.0 mi East 5.8 mph - N/A   Partly Cloudy